Time,TemperatureF,DewpointF,PressureIn,WindDirection,WindDirectionDegrees,WindSpeedMPH,WindSpeedGustMPH,Humidity,HourlyPrecipIn,Conditions,Clouds,dailyrainin,SoftwareType,DateUTC
2013-08-09 00:00:00,64.8,58.8,30.16,North,4,0.0,0.0,81,0.00,CLR,,0.00,WeatherDisplay:10.37,2013-08-09 05:00:00,
2013-08-09 00:05:00,64.8,58.8,30.16,North,6,0.0,1.0,81,0.00,CLR,,0.00,WeatherDisplay:10.37,2013-08-09 05:05:00,
2013-08-09 00:10:00,64.8,58.8,30.16,NNE,19,0.0,0.0,81,0.00,CLR,,0.00,WeatherDisplay:10.37,2013-08-09 05:10:00,
2013-08-09 00:20:00,64.8,58.8,30.16,NNE,22,0.0,0.0,81,0.00,CLR,,0.00,WeatherDisplay:10.37,2013-08-09 05:20:00,
2013-08-09 00:25:00,64.6,58.6,30.16,NNE,22,0.0,0.0,81,0.00,CLR,,0.00,WeatherDisplay:10.37,2013-08-09 05:25:00,
2013-08-09 00:30:00,64.6,59.0,30.16,NNE,22,0.0,0.0,82,0.00,CLR,,0.00,WeatherDisplay:10.37,2013-08-09 05:30:00,
2013-08-09 00:40:00,64.6,59.0,30.16,NNE,22,0.0,0.0,82,0.00,CLR,,0.00,WeatherDisplay:10.37,2013-08-09 05:40:00,
2013-08-09 00:45:00,64.6,59.0,30.16,NNE,22,0.0,0.0,82,0.00,CLR,,0.00,WeatherDisplay:10.37,2013-08-09 05:45:00,
2013-08-09 00:50:00,64.7,59.1,30.16,NNE,12,0.0,0.0,82,0.00,CLR,,0.00,WeatherDisplay:10.37,2013-08-09 05:50:00,
2013-08-09 00:55:00,64.8,59.1,30.16,North,8,1.0,3.0,82,0.00,CLR,,0.00,WeatherDisplay:10.37,2013-08-09 05:55:00,
2013-08-09 01:00:00,64.8,59.1,30.17,North,4,2.0,3.0,82,0.00,CLR,,0.00,WeatherDisplay:10.37,2013-08-09 06:00:00,
2013-08-09 01:05:00,64.8,59.1,30.17,North,0,2.0,0.0,82,0.00,CLR,,0.00,WeatherDisplay:10.37,2013-08-09 06:05:00,
2013-08-09 01:10:00,64.9,59.3,30.16,North,0,0.0,0.0,82,0.00,CLR,,0.00,WeatherDisplay:10.37,2013-08-09 06:10:00,
2013-08-09 01:20:00,64.8,59.1,30.16,North,0,0.0,0.0,82,0.00,CLR,,0.00,WeatherDisplay:10.37,2013-08-09 06:20:00,
2013-08-09 01:30:00,64.8,59.1,30.16,North,10,0.0,0.0,82,0.00,CLR,,0.00,WeatherDisplay:10.37,2013-08-09 06:30:00,
2013-08-09 01:40:00,64.8,59.1,30.17,NNE,22,0.0,0.0,82,0.00,CLR,,0.00,WeatherDisplay:10.37,2013-08-09 06:40:00,
2013-08-09 01:50:00,64.4,58.8,30.16,NNE,22,0.0,0.0,82,0.00,CLR,,0.00,WeatherDisplay:10.37,2013-08-09 06:50:00,
2013-08-09 02:00:00,64.0,58.4,30.15,NNE,22,0.0,0.0,82,0.00,CLR,,0.00,WeatherDisplay:10.37,2013-08-09 07:00:00,
2013-08-09 02:05:00,64.2,58.9,30.15,NNE,22,0.0,0.0,83,0.00,CLR,,0.00,WeatherDisplay:10.37,2013-08-09 07:05:00,
2013-08-09 02:10:00,64.2,58.9,30.15,NNE,22,0.0,0.0,83,0.00,CLR,,0.00,WeatherDisplay:10.37,2013-08-09 07:10:00,
2013-08-09 02:20:00,64.2,58.9,30.15,North,2,0.0,0.0,83,0.00,CLR,,0.00,WeatherDisplay:10.37,2013-08-09 07:20:00,
2013-08-09 02:25:00,64.4,59.1,30.15,North,0,0.0,0.0,83,0.00,CLR,,0.00,WeatherDisplay:10.37,2013-08-09 07:25:00,
2013-08-09 02:30:00,64.2,58.9,30.15,North,0,0.0,0.0,83,0.00,CLR,,0.00,WeatherDisplay:10.37,2013-08-09 07:30:00,
2013-08-09 02:40:00,63.9,58.6,30.15,North,0,0.0,0.0,83,0.00,CLR,,0.00,WeatherDisplay:10.37,2013-08-09 07:40:00,
2013-08-09 02:50:00,63.5,58.2,30.15,North,0,0.0,0.0,83,0.00,CLR,,0.00,WeatherDisplay:10.37,2013-08-09 07:50:00,
2013-08-09 03:00:00,63.3,58.4,30.15,North,0,0.0,0.0,84,0.00,CLR,,0.00,WeatherDisplay:10.37,2013-08-09 08:00:00,
2013-08-09 03:10:00,62.9,58.0,30.15,North,0,0.0,0.0,84,0.00,CLR,,0.00,WeatherDisplay:10.37,2013-08-09 08:10:00,
2013-08-09 03:20:00,62.2,57.7,30.15,North,0,0.0,0.0,85,0.00,CLR,,0.00,WeatherDisplay:10.37,2013-08-09 08:20:00,
2013-08-09 03:30:00,61.5,57.0,30.16,North,0,0.0,0.0,85,0.00,CLR,,0.00,WeatherDisplay:10.37,2013-08-09 08:30:00,
2013-08-09 03:35:00,61.3,56.8,30.16,North,0,0.0,0.0,85,0.00,CLR,,0.00,WeatherDisplay:10.37,2013-08-09 08:35:00,
2013-08-09 03:40:00,61.1,56.5,30.16,North,0,0.0,0.0,85,0.00,CLR,,0.00,WeatherDisplay:10.37,2013-08-09 08:40:00,
2013-08-09 03:45:00,61.0,56.4,30.16,North,0,0.0,0.0,85,0.00,CLR,,0.00,WeatherDisplay:10.37,2013-08-09 08:45:00,
2013-08-09 03:55:00,60.4,56.2,30.16,North,0,0.0,0.0,86,0.00,CLR,,0.00,WeatherDisplay:10.37,2013-08-09 08:55:00,
2013-08-09 04:00:00,60.4,56.2,30.16,North,0,0.0,0.0,86,0.00,CLR,,0.00,WeatherDisplay:10.37,2013-08-09 09:00:00,
2013-08-09 04:05:00,60.4,56.6,30.16,North,0,0.0,0.0,87,0.00,CLR,,0.00,WeatherDisplay:10.37,2013-08-09 09:05:00,
2013-08-09 04:10:00,60.3,56.4,30.16,North,0,0.0,0.0,87,0.00,CLR,,0.00,WeatherDisplay:10.37,2013-08-09 09:10:00,
2013-08-09 04:15:00,60.3,56.4,30.16,North,0,0.0,0.0,87,0.00,CLR,,0.00,WeatherDisplay:10.37,2013-08-09 09:15:00,
2013-08-09 04:20:00,60.1,56.2,30.15,North,0,0.0,0.0,87,0.00,CLR,,0.00,WeatherDisplay:10.37,2013-08-09 09:20:00,
2013-08-09 04:25:00,59.8,55.9,30.15,North,0,0.0,0.0,87,0.00,CLR,,0.00,WeatherDisplay:10.37,2013-08-09 09:25:00,
2013-08-09 04:30:00,59.7,56.5,30.15,North,0,0.0,0.0,89,0.00,CLR,,0.00,WeatherDisplay:10.37,2013-08-09 09:30:00,
2013-08-09 04:35:00,59.7,56.5,30.15,North,0,0.0,0.0,89,0.00,CLR,,0.00,WeatherDisplay:10.37,2013-08-09 09:35:00,
2013-08-09 04:40:00,59.4,56.2,30.16,North,0,0.0,0.0,89,0.00,CLR,,0.00,WeatherDisplay:10.37,2013-08-09 09:40:00,
2013-08-09 04:45:00,59.2,55.9,30.15,North,0,0.0,0.0,89,0.00,CLR,,0.00,WeatherDisplay:10.37,2013-08-09 09:45:00,
2013-08-09 04:55:00,59.0,55.8,30.16,North,0,0.0,0.0,89,0.00,CLR,,0.00,WeatherDisplay:10.37,2013-08-09 09:55:00,
2013-08-09 05:00:00,59.0,55.8,30.16,North,0,0.0,0.0,89,0.00,CLR,,0.00,WeatherDisplay:10.37,2013-08-09 10:00:00,
2013-08-09 05:10:00,58.5,55.3,30.15,North,0,0.0,0.0,89,0.00,CLR,,0.00,WeatherDisplay:10.37,2013-08-09 10:10:00,
2013-08-09 05:15:00,58.5,55.2,30.16,North,0,0.0,0.0,89,0.00,CLR,,0.00,WeatherDisplay:10.37,2013-08-09 10:15:00,
2013-08-09 05:20:00,58.5,55.2,30.15,North,0,0.0,0.0,89,0.00,CLR,,0.00,WeatherDisplay:10.37,2013-08-09 10:20:00,
2013-08-09 05:30:00,58.5,55.2,30.15,North,0,0.0,0.0,89,0.00,CLR,,0.00,WeatherDisplay:10.37,2013-08-09 10:30:00,
2013-08-09 05:35:00,58.3,55.1,30.15,North,0,0.0,0.0,89,0.00,CLR,,0.00,WeatherDisplay:10.37,2013-08-09 10:35:00,
2013-08-09 05:40:00,58.3,55.4,30.15,North,0,0.0,0.0,90,0.00,CLR,,0.00,WeatherDisplay:10.37,2013-08-09 10:40:00,
2013-08-09 05:45:00,58.3,55.1,30.15,North,0,0.0,0.0,89,0.00,CLR,,0.00,WeatherDisplay:10.37,2013-08-09 10:45:00,
2013-08-09 05:50:00,58.5,55.5,30.15,North,0,0.0,0.0,90,0.00,CLR,,0.00,WeatherDisplay:10.37,2013-08-09 10:50:00,
2013-08-09 06:00:00,58.5,55.5,30.16,North,0,0.0,0.0,90,0.00,CLR,,0.00,WeatherDisplay:10.37,2013-08-09 11:00:00,
2013-08-09 06:05:00,58.5,55.5,30.16,North,0,0.0,0.0,90,0.00,CLR,,0.00,WeatherDisplay:10.37,2013-08-09 11:05:00,
2013-08-09 06:10:00,58.6,55.7,30.17,North,0,0.0,0.0,90,0.00,CLR,,0.00,WeatherDisplay:10.37,2013-08-09 11:10:00,
2013-08-09 06:20:00,58.9,56.3,30.17,North,0,0.0,0.0,91,0.00,CLR,,0.00,WeatherDisplay:10.37,2013-08-09 11:20:00,
2013-08-09 06:25:00,59.0,56.4,30.17,North,0,0.0,0.0,91,0.00,CLR,,0.00,WeatherDisplay:10.37,2013-08-09 11:25:00,
2013-08-09 06:30:00,59.2,56.6,30.17,North,0,0.0,0.0,91,0.00,CLR,,0.00,WeatherDisplay:10.37,2013-08-09 11:30:00,
2013-08-09 06:40:00,59.4,57.0,30.17,North,0,0.0,0.0,92,0.00,CLR,,0.00,WeatherDisplay:10.37,2013-08-09 11:40:00,
2013-08-09 06:50:00,59.7,57.4,30.18,North,0,0.0,0.0,92,0.00,CLR,,0.00,WeatherDisplay:10.37,2013-08-09 11:50:00,
2013-08-09 06:55:00,59.9,57.3,30.17,North,0,0.0,0.0,91,0.00,CLR,,0.00,WeatherDisplay:10.37,2013-08-09 11:55:00,
2013-08-09 07:00:00,60.3,57.9,30.17,North,0,0.0,0.0,92,0.00,CLR,,0.00,WeatherDisplay:10.37,2013-08-09 12:00:00,
2013-08-09 07:05:00,60.8,58.4,30.18,North,0,0.0,0.0,92,0.00,CLR,,0.00,WeatherDisplay:10.37,2013-08-09 12:05:00,
2013-08-09 07:10:00,61.5,59.2,30.18,North,0,0.0,0.0,92,0.00,CLR,,0.00,WeatherDisplay:10.37,2013-08-09 12:10:00,
2013-08-09 07:20:00,62.5,60.1,30.17,North,0,0.0,0.0,92,0.00,CLR,,0.00,WeatherDisplay:10.37,2013-08-09 12:20:00,
2013-08-09 07:30:00,63.9,62.7,30.18,North,0,0.0,0.0,96,0.00,CLR,,0.00,WeatherDisplay:10.37,2013-08-09 12:30:00,
2013-08-09 07:40:00,65.6,64.4,30.18,North,0,0.0,0.0,96,0.00,CLR,,0.00,WeatherDisplay:10.37,2013-08-09 12:40:00,
2013-08-09 07:50:00,67.3,63.9,30.18,North,5,0.0,0.0,89,0.00,CLR,,0.00,WeatherDisplay:10.37,2013-08-09 12:50:00,
2013-08-09 07:55:00,68.0,64.0,30.18,NNE,20,0.0,0.0,87,0.00,CLR,,0.00,WeatherDisplay:10.37,2013-08-09 12:55:00,
2013-08-09 08:05:00,68.9,63.9,30.18,NNE,19,0.0,1.0,84,0.00,CLR,,0.00,WeatherDisplay:10.37,2013-08-09 13:05:00,
2013-08-09 08:10:00,69.1,63.0,30.18,North,8,0.0,1.0,81,0.00,CLR,,0.00,WeatherDisplay:10.37,2013-08-09 13:10:00,
2013-08-09 08:15:00,69.5,63.0,30.18,NNE,13,0.0,0.0,80,0.00,CLR,,0.00,WeatherDisplay:10.37,2013-08-09 13:15:00,
2013-08-09 08:20:00,70.0,62.8,30.18,NNE,31,0.0,0.0,78,0.00,CLR,,0.00,WeatherDisplay:10.37,2013-08-09 13:20:00,
2013-08-09 08:25:00,70.1,62.2,30.19,NE,43,0.0,0.0,76,0.00,CLR,,0.00,WeatherDisplay:10.37,2013-08-09 13:25:00,
2013-08-09 08:35:00,70.7,60.8,30.19,North,8,0.0,0.0,71,0.00,CLR,,0.00,WeatherDisplay:10.37,2013-08-09 13:35:00,
2013-08-09 08:40:00,71.2,61.0,30.18,North,0,0.0,0.0,70,0.00,CLR,,0.00,WeatherDisplay:10.37,2013-08-09 13:40:00,
2013-08-09 08:50:00,72.3,60.7,30.18,North,0,1.0,1.0,67,0.00,CLR,,0.00,WeatherDisplay:10.37,2013-08-09 13:50:00,
2013-08-09 08:55:00,72.5,59.6,30.18,North,0,0.0,1.0,64,0.00,CLR,,0.00,WeatherDisplay:10.37,2013-08-09 13:55:00,
2013-08-09 09:05:00,73.9,59.2,30.19,North,357,0.0,3.0,60,0.00,CLR,,0.00,WeatherDisplay:10.37,2013-08-09 14:05:00,
2013-08-09 09:10:00,74.8,59.5,30.19,NNE,13,0.0,0.0,59,0.00,CLR,,0.00,WeatherDisplay:10.37,2013-08-09 14:10:00,
2013-08-09 09:20:00,75.9,58.1,30.19,NNW,345,1.0,1.0,54,0.00,CLR,,0.00,WeatherDisplay:10.37,2013-08-09 14:20:00,
2013-08-09 09:25:00,76.1,57.2,30.19,NNW,337,0.0,1.0,52,0.00,CLR,,0.00,WeatherDisplay:10.37,2013-08-09 14:25:00,
2013-08-09 09:30:00,76.6,57.6,30.19,North,350,1.0,2.0,52,0.00,CLR,,0.00,WeatherDisplay:10.37,2013-08-09 14:30:00,
2013-08-09 09:35:00,77.0,57.5,30.19,North,352,2.0,2.0,51,0.00,CLR,,0.00,WeatherDisplay:10.37,2013-08-09 14:35:00,
2013-08-09 09:45:00,77.7,58.7,30.19,North,355,1.0,1.0,52,0.00,CLR,,0.00,WeatherDisplay:10.37,2013-08-09 14:45:00,
2013-08-09 09:50:00,78.8,58.0,30.19,North,6,0.0,1.0,49,0.00,CLR,,0.00,WeatherDisplay:10.37,2013-08-09 14:50:00,
2013-08-09 09:55:00,79.2,57.8,30.19,North,358,2.0,6.0,48,0.00,CLR,,0.00,WeatherDisplay:10.37,2013-08-09 14:55:00,
2013-08-09 10:00:00,79.2,56.0,30.19,North,356,0.0,1.0,45,0.00,CLR,,0.00,WeatherDisplay:10.37,2013-08-09 15:00:00,
2013-08-09 10:10:00,80.1,55.5,30.19,North,359,0.0,1.0,43,0.00,CLR,,0.00,WeatherDisplay:10.37,2013-08-09 15:10:00,
2013-08-09 10:15:00,80.8,56.2,30.19,NNE,12,0.0,0.0,43,0.00,CLR,,0.00,WeatherDisplay:10.37,2013-08-09 15:15:00,
2013-08-09 10:20:00,81.0,55.7,30.19,NNE,12,0.0,0.0,42,0.00,CLR,,0.00,WeatherDisplay:10.37,2013-08-09 15:20:00,
2013-08-09 10:30:00,80.8,55.5,30.19,North,8,0.0,1.0,42,0.00,CLR,,0.00,WeatherDisplay:10.37,2013-08-09 15:30:00,
2013-08-09 10:40:00,80.8,54.9,30.19,NNW,346,0.0,1.0,41,0.00,CLR,,0.00,WeatherDisplay:10.37,2013-08-09 15:40:00,
2013-08-09 10:50:00,81.3,55.4,30.19,NNW,347,0.0,0.0,41,0.00,CLR,,0.00,WeatherDisplay:10.37,2013-08-09 15:50:00,
2013-08-09 11:00:00,81.4,54.0,30.19,NNW,334,0.0,0.0,39,0.00,CLR,,0.00,WeatherDisplay:10.37,2013-08-09 16:00:00,
2013-08-09 11:10:00,82.1,55.4,30.19,North,350,0.0,0.0,40,0.00,CLR,,0.00,WeatherDisplay:10.37,2013-08-09 16:10:00,
2013-08-09 11:20:00,82.8,55.3,30.19,NNW,347,0.0,0.0,39,0.00,CLR,,0.00,WeatherDisplay:10.37,2013-08-09 16:20:00,
2013-08-09 11:30:00,83.7,56.8,30.19,NNW,337,0.0,0.0,40,0.00,CLR,,0.00,WeatherDisplay:10.37,2013-08-09 16:30:00,
2013-08-09 11:35:00,84.6,58.3,30.19,North,354,0.0,0.0,41,0.00,CLR,,0.00,WeatherDisplay:10.37,2013-08-09 16:35:00,
2013-08-09 11:40:00,85.5,57.0,30.19,North,359,0.0,1.0,38,0.00,CLR,,0.00,WeatherDisplay:10.37,2013-08-09 16:40:00,
2013-08-09 11:45:00,85.6,56.4,30.19,NW,319,1.0,2.0,37,0.00,CLR,,0.00,WeatherDisplay:10.37,2013-08-09 16:45:00,
2013-08-09 11:55:00,86.7,56.6,30.19,West,268,0.0,1.0,36,0.00,CLR,,0.00,WeatherDisplay:10.37,2013-08-09 16:55:00,
2013-08-09 12:05:00,86.4,54.7,30.19,NNW,346,0.0,0.0,34,0.00,CLR,,0.00,WeatherDisplay:10.37,2013-08-09 17:05:00,
2013-08-09 12:10:00,85.9,54.3,30.19,NNW,347,0.0,0.0,34,0.00,CLR,,0.00,WeatherDisplay:10.37,2013-08-09 17:10:00,
2013-08-09 12:15:00,85.5,54.7,30.19,NNW,336,0.0,0.0,35,0.00,CLR,,0.00,WeatherDisplay:10.37,2013-08-09 17:15:00,
2013-08-09 12:20:00,86.7,55.8,30.19,NNW,335,0.0,0.0,35,0.00,CLR,,0.00,WeatherDisplay:10.37,2013-08-09 17:20:00,
2013-08-09 12:25:00,87.3,53.9,30.19,North,350,0.0,1.0,32,0.00,CLR,,0.00,WeatherDisplay:10.37,2013-08-09 17:25:00,
2013-08-09 12:30:00,88.0,54.4,30.19,North,0,1.0,2.0,32,0.00,CLR,,0.00,WeatherDisplay:10.37,2013-08-09 17:30:00,
2013-08-09 12:40:00,88.6,54.1,30.19,North,11,1.0,5.0,31,0.00,CLR,,0.00,WeatherDisplay:10.37,2013-08-09 17:40:00,
2013-08-09 12:45:00,88.7,55.1,30.19,North,0,1.0,5.0,32,0.00,CLR,,0.00,WeatherDisplay:10.37,2013-08-09 17:45:00,
2013-08-09 12:50:00,89.8,55.2,30.19,North,355,0.0,1.0,31,0.00,CLR,,0.00,WeatherDisplay:10.37,2013-08-09 17:50:00,
2013-08-09 12:55:00,90.8,56.9,30.18,North,359,0.0,0.0,32,0.00,CLR,,0.00,WeatherDisplay:10.37,2013-08-09 17:55:00,
2013-08-09 13:00:00,92.3,57.3,30.19,North,4,0.0,0.0,31,0.00,CLR,,0.00,WeatherDisplay:10.37,2013-08-09 18:00:00,
2013-08-09 13:05:00,92.7,54.8,30.18,North,355,0.0,1.0,28,0.00,CLR,,0.00,WeatherDisplay:10.37,2013-08-09 18:05:00,
2013-08-09 13:10:00,93.9,57.8,30.18,NNW,342,1.0,4.0,30,0.00,CLR,,0.00,WeatherDisplay:10.37,2013-08-09 18:10:00,
2013-08-09 13:15:00,94.1,55.0,30.18,NNW,341,1.0,4.0,27,0.00,CLR,,0.00,WeatherDisplay:10.37,2013-08-09 18:15:00,
2013-08-09 13:20:00,93.8,53.7,30.18,NNW,346,1.0,3.0,26,0.00,CLR,,0.00,WeatherDisplay:10.37,2013-08-09 18:20:00,
2013-08-09 13:25:00,93.5,55.5,30.18,North,356,0.0,3.0,28,0.00,CLR,,0.00,WeatherDisplay:10.37,2013-08-09 18:25:00,
2013-08-09 13:30:00,94.5,57.3,30.18,North,0,0.0,0.0,29,0.00,CLR,,0.00,WeatherDisplay:10.37,2013-08-09 18:30:00,
2013-08-09 13:40:00,95.2,55.9,30.18,NE,45,0.0,0.0,27,0.00,CLR,,0.00,WeatherDisplay:10.37,2013-08-09 18:40:00,
2013-08-09 13:50:00,95.5,55.1,30.18,North,0,0.0,1.0,26,0.00,CLR,,0.00,WeatherDisplay:10.37,2013-08-09 18:50:00,
2013-08-09 14:00:00,97.2,55.5,30.17,NNE,15,1.0,1.0,25,0.00,CLR,,0.00,WeatherDisplay:10.37,2013-08-09 19:00:00,
2013-08-09 14:10:00,97.5,54.7,30.18,NNE,22,0.0,0.0,24,0.00,CLR,,0.00,WeatherDisplay:10.37,2013-08-09 19:10:00,
2013-08-09 14:20:00,96.5,55.0,30.18,NNE,22,0.0,0.0,25,0.00,CLR,,0.00,WeatherDisplay:10.37,2013-08-09 19:20:00,
2013-08-09 14:25:00,95.0,54.7,30.18,NNE,22,0.0,0.0,26,0.00,CLR,,0.00,WeatherDisplay:10.37,2013-08-09 19:25:00,
2013-08-09 14:30:00,93.7,53.7,30.18,NNE,22,1.0,1.0,26,0.00,CLR,,0.00,WeatherDisplay:10.37,2013-08-09 19:30:00,
2013-08-09 14:40:00,94.6,57.5,30.18,NNE,22,0.0,1.0,29,0.00,CLR,,0.00,WeatherDisplay:10.37,2013-08-09 19:40:00,
2013-08-09 14:50:00,92.7,57.7,30.18,NNE,27,0.0,0.0,31,0.00,CLR,,0.00,WeatherDisplay:10.37,2013-08-09 19:50:00,
2013-08-09 14:55:00,92.8,56.8,30.17,East,82,0.0,0.0,30,0.00,CLR,,0.00,WeatherDisplay:10.37,2013-08-09 19:55:00,
2013-08-09 15:00:00,92.3,57.3,30.17,South,174,0.0,0.0,31,0.00,CLR,,0.00,WeatherDisplay:10.37,2013-08-09 20:00:00,
2013-08-09 15:10:00,94.6,60.2,30.17,ENE,69,0.0,0.0,32,0.00,CLR,,0.00,WeatherDisplay:10.37,2013-08-09 20:10:00,
2013-08-09 15:20:00,92.6,55.7,30.17,SSE,163,1.0,4.0,29,0.00,CLR,,0.00,WeatherDisplay:10.37,2013-08-09 20:20:00,
2013-08-09 15:30:00,91.9,57.0,30.17,SSW,209,0.0,0.0,31,0.00,CLR,,0.00,WeatherDisplay:10.37,2013-08-09 20:30:00,
2013-08-09 15:40:00,92.7,60.2,30.17,SSW,213,0.0,0.0,34,0.00,CLR,,0.00,WeatherDisplay:10.37,2013-08-09 20:40:00,
2013-08-09 15:50:00,91.8,57.8,30.17,SSW,193,3.0,3.0,32,0.00,CLR,,0.00,WeatherDisplay:10.37,2013-08-09 20:50:00,
2013-08-09 15:55:00,88.5,56.6,30.17,SSW,200,0.0,0.0,34,0.00,CLR,,0.00,WeatherDisplay:10.37,2013-08-09 20:55:00,
2013-08-09 16:00:00,87.6,57.4,30.17,SSW,208,0.0,0.0,36,0.00,CLR,,0.00,WeatherDisplay:10.37,2013-08-09 21:00:00,
2013-08-09 16:05:00,85.8,57.3,30.17,SW,225,0.0,1.0,38,0.00,CLR,,0.00,WeatherDisplay:10.37,2013-08-09 21:05:00,
2013-08-09 16:10:00,85.8,58.0,30.17,SW,236,1.0,2.0,39,0.00,CLR,,0.00,WeatherDisplay:10.37,2013-08-09 21:10:00,
2013-08-09 16:20:00,86.7,59.5,30.17,South,169,0.0,1.0,40,0.00,CLR,,0.00,WeatherDisplay:10.37,2013-08-09 21:20:00,
2013-08-09 16:30:00,87.4,58.7,30.17,SSW,205,3.0,4.0,38,0.00,CLR,,0.00,WeatherDisplay:10.37,2013-08-09 21:30:00,
2013-08-09 16:35:00,87.8,59.0,30.17,SSW,196,1.0,2.0,38,0.00,CLR,,0.00,WeatherDisplay:10.37,2013-08-09 21:35:00,
2013-08-09 16:40:00,88.0,59.9,30.17,South,186,2.0,2.0,39,0.00,CLR,,0.00,WeatherDisplay:10.37,2013-08-09 21:40:00,
2013-08-09 16:45:00,87.4,59.4,30.17,South,184,1.0,2.0,39,0.00,CLR,,0.00,WeatherDisplay:10.37,2013-08-09 21:45:00,
2013-08-09 16:50:00,85.7,57.9,30.17,SSW,193,0.0,1.0,39,0.00,CLR,,0.00,WeatherDisplay:10.37,2013-08-09 21:50:00,
2013-08-09 17:00:00,83.6,58.7,30.17,SSW,202,0.0,0.0,43,0.00,CLR,,0.00,WeatherDisplay:10.37,2013-08-09 22:00:00,
2013-08-09 17:06:00,82.5,59.0,30.17,SSW,213,3.0,4.0,45,0.00,CLR,,0.00,WeatherDisplay:10.37,2013-08-09 22:06:00,
2013-08-09 17:15:00,82.4,61.3,30.16,SW,225,0.0,2.0,49,0.00,CLR,,0.00,WeatherDisplay:10.37,2013-08-09 22:15:00,
2013-08-09 17:20:00,82.8,62.2,30.16,SW,225,0.0,2.0,50,0.00,CLR,,0.00,WeatherDisplay:10.37,2013-08-09 22:20:00,
2013-08-09 17:25:00,82.6,61.5,30.16,SW,233,1.0,1.0,49,0.00,CLR,,0.00,WeatherDisplay:10.37,2013-08-09 22:25:00,
2013-08-09 17:30:00,81.4,60.4,30.16,SW,221,1.0,2.0,49,0.00,CLR,,0.00,WeatherDisplay:10.37,2013-08-09 22:30:00,
2013-08-09 17:35:00,81.0,60.0,30.16,SW,228,0.0,1.0,49,0.00,CLR,,0.00,WeatherDisplay:10.37,2013-08-09 22:35:00,
2013-08-09 17:40:00,80.7,60.3,30.16,WSW,248,0.0,0.0,50,0.00,CLR,,0.00,WeatherDisplay:10.37,2013-08-09 22:40:00,
2013-08-09 17:45:00,80.1,60.3,30.16,WSW,245,1.0,1.0,51,0.00,CLR,,0.00,WeatherDisplay:10.37,2013-08-09 22:45:00,
2013-08-09 17:50:00,79.7,60.5,30.16,SW,228,0.0,2.0,52,0.00,CLR,,0.00,WeatherDisplay:10.37,2013-08-09 22:50:00,
2013-08-09 17:55:00,79.5,61.4,30.16,SW,216,0.0,0.0,54,0.00,CLR,,0.00,WeatherDisplay:10.37,2013-08-09 22:55:00,
2013-08-09 18:00:00,79.5,61.4,30.16,SW,226,1.0,3.0,54,0.00,CLR,,0.00,WeatherDisplay:10.37,2013-08-09 23:00:00,
2013-08-09 18:05:00,79.5,61.4,30.16,WSW,241,1.0,3.0,54,0.00,CLR,,0.00,WeatherDisplay:10.37,2013-08-09 23:05:00,
2013-08-09 18:10:00,79.2,61.1,30.16,WSW,244,0.0,1.0,54,0.00,CLR,,0.00,WeatherDisplay:10.37,2013-08-09 23:10:00,
2013-08-09 18:15:00,78.6,61.1,30.16,SW,216,0.0,2.0,55,0.00,CLR,,0.00,WeatherDisplay:10.37,2013-08-09 23:15:00,
2013-08-09 18:20:00,78.4,60.9,30.16,SSW,207,0.0,2.0,55,0.00,CLR,,0.00,WeatherDisplay:10.37,2013-08-09 23:20:00,
2013-08-09 18:25:00,78.3,61.3,30.16,SW,216,1.0,1.0,56,0.00,CLR,,0.00,WeatherDisplay:10.37,2013-08-09 23:25:00,
2013-08-09 18:30:00,78.1,60.6,30.16,SW,230,1.0,2.0,55,0.00,CLR,,0.00,WeatherDisplay:10.37,2013-08-09 23:30:00,
2013-08-09 18:35:00,77.9,60.4,30.16,SW,235,0.0,1.0,55,0.00,CLR,,0.00,WeatherDisplay:10.37,2013-08-09 23:35:00,
2013-08-09 18:40:00,77.6,60.7,30.16,WSW,248,1.0,2.0,56,0.00,CLR,,0.00,WeatherDisplay:10.37,2013-08-09 23:40:00,
2013-08-09 18:45:00,77.2,60.8,30.17,WSW,241,2.0,2.0,57,0.00,CLR,,0.00,WeatherDisplay:10.37,2013-08-09 23:45:00,
2013-08-09 18:50:00,77.0,60.6,30.16,SW,227,1.0,2.0,57,0.00,CLR,,0.00,WeatherDisplay:10.37,2013-08-09 23:50:00,
2013-08-09 18:55:00,76.6,60.2,30.16,WSW,245,1.0,2.0,57,0.00,CLR,,0.00,WeatherDisplay:10.37,2013-08-09 23:55:00,
2013-08-09 19:05:00,76.1,60.2,30.16,WSW,243,1.0,1.0,58,0.00,CLR,,0.00,WeatherDisplay:10.37,2013-08-10 00:05:00,
2013-08-09 19:10:00,75.9,60.5,30.17,WSW,240,1.0,1.0,59,0.00,CLR,,0.00,WeatherDisplay:10.37,2013-08-10 00:10:00,
2013-08-09 19:15:00,75.4,60.5,30.17,WSW,244,1.0,2.0,60,0.00,CLR,,0.00,WeatherDisplay:10.37,2013-08-10 00:15:00,
2013-08-09 19:25:00,74.8,60.5,30.17,WSW,241,3.0,3.0,61,0.00,CLR,,0.00,WeatherDisplay:10.37,2013-08-10 00:25:00,
2013-08-09 19:30:00,74.7,60.3,30.17,WSW,245,0.0,0.0,61,0.00,CLR,,0.00,WeatherDisplay:10.37,2013-08-10 00:30:00,
2013-08-09 19:40:00,74.1,60.7,30.17,WSW,248,0.0,0.0,63,0.00,CLR,,0.00,WeatherDisplay:10.37,2013-08-10 00:40:00,
2013-08-09 19:50:00,73.6,60.6,30.17,WSW,248,0.0,1.0,64,0.00,CLR,,0.00,WeatherDisplay:10.37,2013-08-10 00:50:00,
2013-08-09 20:00:00,73.2,60.3,30.18,WSW,248,0.0,0.0,64,0.00,CLR,,0.00,WeatherDisplay:10.37,2013-08-10 01:00:00,
2013-08-09 20:05:00,73.0,60.6,30.17,WSW,248,1.0,2.0,65,0.00,CLR,,0.00,WeatherDisplay:10.37,2013-08-10 01:05:00,
2013-08-09 20:10:00,72.9,60.4,30.18,WSW,248,0.0,2.0,65,0.00,CLR,,0.00,WeatherDisplay:10.37,2013-08-10 01:10:00,
2013-08-09 20:20:00,72.5,60.1,30.18,WSW,248,0.0,0.0,65,0.00,CLR,,0.00,WeatherDisplay:10.37,2013-08-10 01:20:00,
2013-08-09 20:30:00,72.5,60.5,30.17,WSW,248,0.0,0.0,66,0.00,CLR,,0.00,WeatherDisplay:10.37,2013-08-10 01:30:00,
2013-08-09 20:40:00,72.0,60.8,30.17,WSW,248,0.0,0.0,68,0.00,CLR,,0.00,WeatherDisplay:10.37,2013-08-10 01:40:00,
2013-08-09 20:45:00,71.8,60.6,30.18,WSW,248,0.0,0.0,68,0.00,CLR,,0.00,WeatherDisplay:10.37,2013-08-10 01:45:00,
2013-08-09 20:50:00,71.7,61.0,30.18,WSW,248,0.0,0.0,69,0.00,CLR,,0.00,WeatherDisplay:10.37,2013-08-10 01:50:00,
2013-08-09 21:00:00,71.1,60.8,30.18,WSW,248,0.0,0.0,70,0.00,CLR,,0.00,WeatherDisplay:10.37,2013-08-10 02:00:00,
2013-08-09 21:05:00,70.8,60.6,30.18,WSW,248,0.0,0.0,70,0.00,CLR,,0.00,WeatherDisplay:10.37,2013-08-10 02:05:00,
2013-08-09 21:10:00,70.7,60.8,30.19,WSW,248,0.0,0.0,71,0.00,CLR,,0.00,WeatherDisplay:10.37,2013-08-10 02:10:00,
2013-08-09 21:20:00,70.3,60.9,30.19,WSW,248,0.0,0.0,72,0.00,CLR,,0.00,WeatherDisplay:10.37,2013-08-10 02:20:00,
2013-08-09 21:25:00,70.0,60.5,30.19,WSW,248,0.0,0.0,72,0.00,CLR,,0.00,WeatherDisplay:10.37,2013-08-10 02:25:00,
2013-08-09 21:30:00,70.0,60.5,30.19,WSW,248,0.0,0.0,72,0.00,CLR,,0.00,WeatherDisplay:10.37,2013-08-10 02:30:00,
2013-08-09 21:40:00,69.4,60.4,30.19,WSW,248,0.0,0.0,73,0.00,CLR,,0.00,WeatherDisplay:10.37,2013-08-10 02:40:00,
2013-08-09 21:45:00,69.3,60.2,30.19,WSW,248,0.0,0.0,73,0.00,CLR,,0.00,WeatherDisplay:10.37,2013-08-10 02:45:00,
2013-08-09 21:50:00,69.3,60.6,30.19,WSW,248,0.0,0.0,74,0.00,CLR,,0.00,WeatherDisplay:10.37,2013-08-10 02:50:00,
2013-08-09 22:00:00,69.6,61.7,30.19,WSW,248,0.0,0.0,76,0.00,CLR,,0.00,WeatherDisplay:10.37,2013-08-10 03:00:00,
2013-08-09 22:10:00,70.0,62.1,30.19,WSW,248,0.0,0.0,76,0.00,CLR,,0.00,WeatherDisplay:10.37,2013-08-10 03:10:00,
2013-08-09 22:15:00,70.0,61.7,30.20,WSW,248,0.0,0.0,75,0.00,CLR,,0.00,WeatherDisplay:10.37,2013-08-10 03:15:00,
2013-08-09 22:20:00,70.0,61.7,30.19,WSW,248,0.0,0.0,75,0.00,CLR,,0.00,WeatherDisplay:10.37,2013-08-10 03:20:00,
2013-08-09 22:25:00,69.8,61.5,30.20,WSW,248,0.0,0.0,75,0.00,CLR,,0.00,WeatherDisplay:10.37,2013-08-10 03:25:00,
2013-08-09 22:30:00,69.6,61.3,30.19,WSW,248,0.0,0.0,75,0.00,CLR,,0.00,WeatherDisplay:10.37,2013-08-10 03:30:00,
2013-08-09 22:40:00,69.3,61.4,30.20,WSW,248,0.0,0.0,76,0.00,CLR,,0.00,WeatherDisplay:10.37,2013-08-10 03:40:00,
2013-08-09 22:50:00,68.9,61.4,30.20,WSW,248,0.0,0.0,77,0.00,CLR,,0.00,WeatherDisplay:10.37,2013-08-10 03:50:00,
2013-08-09 22:55:00,68.9,61.4,30.20,WSW,248,0.0,0.0,77,0.00,CLR,,0.00,WeatherDisplay:10.37,2013-08-10 03:55:00,
2013-08-09 23:05:00,69.1,61.9,30.20,WSW,248,0.0,0.0,78,0.00,CLR,,0.00,WeatherDisplay:10.37,2013-08-10 04:05:00,
2013-08-09 23:10:00,69.3,62.1,30.20,WSW,248,0.0,0.0,78,0.00,CLR,,0.00,WeatherDisplay:10.37,2013-08-10 04:10:00,
2013-08-09 23:15:00,69.3,62.1,30.20,WSW,248,0.0,0.0,78,0.00,CLR,,0.00,WeatherDisplay:10.37,2013-08-10 04:15:00,
2013-08-09 23:20:00,69.3,62.1,30.20,WSW,248,0.0,0.0,78,0.00,CLR,,0.00,WeatherDisplay:10.37,2013-08-10 04:20:00,
2013-08-09 23:25:00,69.3,62.1,30.20,WSW,248,0.0,0.0,78,0.00,CLR,,0.00,WeatherDisplay:10.37,2013-08-10 04:25:00,
2013-08-09 23:30:00,69.3,62.5,30.20,WSW,248,0.0,0.0,79,0.00,CLR,,0.00,WeatherDisplay:10.37,2013-08-10 04:30:00,
2013-08-09 23:35:00,69.3,62.5,30.20,WSW,248,0.0,0.0,79,0.00,CLR,,0.00,WeatherDisplay:10.37,2013-08-10 04:35:00,
2013-08-09 23:40:00,69.4,63.0,30.21,WSW,248,0.0,0.0,80,0.00,CLR,,0.00,WeatherDisplay:10.37,2013-08-10 04:40:00,
2013-08-09 23:50:00,69.9,63.4,30.21,WSW,248,0.0,0.0,80,0.00,CLR,,0.00,WeatherDisplay:10.37,2013-08-10 04:50:00,
2013-08-09 23:55:00,70.0,63.5,30.21,WSW,248,0.0,0.0,80,0.00,CLR,,0.00,WeatherDisplay:10.37,2013-08-10 04:55:00,